Location: Cantaing
(50.1487°N, 3.1675°E)
Time: 09:01:01
(UTC+00:00)

Cosmos 1758 - Pass Details

Date: 14 January 2026
Orbit: 479 x 500 km, 82.5° (Epoch: 17 February)

Event Time Altitude Azimuth Distance (km) Brightness Sun altitude
Rises 07:01:09 0° 227° (SW) 2,584 6.5 -6.4°
Reaches altitude 10° 07:03:45 10° 245° (WSW) 1,702 5.5 -6.1°
Maximum altitude 07:06:27 19° 292° (WNW) 1,243 4.5 -5.7°
Drops below altitude 10° 07:09:11 10° 339° (NNW) 1,704 5.4 -5.3°
Sets 07:11:46 0° 358° (N) 2,587 6.5 -4.9°
